| time (UTC) | temp F | wind direction | speed MPH | gust MPH | rain 1hr in | rain 24hr in | rain mn in | humidity % | barometer mb |
| 20260504081610 | 36 | 234 | 0.0 | 0.0 | 0.00 | 0.00 | 0.00 | 52 | 1009.9 |
| 20260504044530 | 42 | 236 | 0.0 | 0.0 | 0.00 | 0.00 | 0.00 | 34 | 1009.8 |
| 20260504043056 | 42 | 236 | 0.0 | 0.0 | 0.00 | 0.00 | 0.00 | 32 | 1009.7 |
| 20260504041545 | 43 | 236 | 0.0 | 0.0 | 0.00 | 0.00 | 0.00 | 31 | 1009.6 |
| 20260504040128 | 43 | 236 | 0.0 | 0.0 | 0.00 | 0.00 | 0.00 | 30 | 1009.5 |
| 20260504034540 | 44 | 236 | 0.0 | 0.0 | 0.00 | 0.00 | 0.00 | 28 | 1009.4 |
| 20260504033055 | 45 | 236 | 0.0 | 0.0 | 0.00 | 0.00 | 0.00 | 27 | 1009.1 |
| 20260504031545 | 46 | 236 | 0.0 | 0.0 | 0.00 | 0.00 | 0.00 | 24 | 1009.0 |
| 20260504030056 | 47 | 236 | 0.0 | 0.0 | 0.00 | 0.00 | 0.00 | 24 | 1009.0 |
| 20260504024558 | 48 | 236 | 0.0 | 0.0 | 0.00 | 0.00 | 0.00 | 21 | 1009.0 |
| 20260504023050 | 50 | 234 | 0.0 | 0.0 | 0.00 | 0.00 | 0.00 | 17 | 1009.0 |
| 20260504021545 | 50 | 234 | 0.0 | 0.0 | 0.00 | 0.00 | 0.00 | 17 | 1009.2 |
| 20260504020037 | 51 | 234 | 0.0 | 0.0 | 0.00 | 0.00 | 0.00 | 17 | 1009.3 |
| 20260504014608 | 53 | 234 | 2.0 | 0.0 | 0.00 | 0.00 | 0.00 | 13 | 1009.1 |
| 20260504013035 | 53 | 230 | 2.0 | 0.0 | 0.00 | 0.00 | 0.00 | 11 | 1008.9 |
| 20260504011539 | 53 | 244 | 3.0 | 0.0 | 0.00 | 0.00 | 0.00 | 11 | 1008.9 |
| 20260504010047 | 53 | 222 | 2.0 | 0.0 | 0.00 | 0.00 | 0.00 | 13 | 1008.9 |
| 20260504004600 | 54 | 230 | 3.0 | 0.0 | 0.00 | 0.00 | 0.00 | 11 | 1008.8 |
| 20260504003047 | 55 | 237 | 3.0 | 0.0 | 0.00 | 0.00 | 0.00 | 10 | 1008.5 |
| 20260504001545 | 55 | 237 | 2.0 | 0.0 | 0.00 | 0.00 | 0.00 | 10 | 1008.3 |
| 20260504000043 | 57 | 274 | 3.0 | 0.0 | 0.00 | 0.00 | 0.00 | 9 | 1008.2 |
| 20260503234534 | 58 | 240 | 4.0 | 0.0 | 0.00 | 0.00 | 0.00 | 7 | 1008.0 |
| 20260503233041 | 58 | 274 | 6.0 | 0.0 | 0.00 | 0.00 | 0.00 | 7 | 1008.0 |
| 20260503231610 | 59 | 271 | 6.0 | 0.0 | 0.00 | 0.00 | 0.00 | 6 | 1007.8 |
| 20260503230039 | 59 | 289 | 7.0 | 0.0 | 0.00 | 0.00 | 0.00 | 8 | 1007.8 |
| 20260503224548 | 60 | 277 | 9.0 | 0.0 | 0.00 | 0.00 | 0.00 | 6 | 1007.8 |
| 20260503223039 | 60 | 263 | 8.0 | 0.0 | 0.00 | 0.00 | 0.00 | 6 | 1007.7 |
| 20260503221534 | 59 | 260 | 9.0 | 0.0 | 0.00 | 0.00 | 0.00 | 6 | 1007.8 |
| 20260503220054 | 60 | 281 | 8.0 | 0.0 | 0.00 | 0.00 | 0.00 | 6 | 1007.7 |
| 20260503214549 | 60 | 282 | 8.0 | 0.0 | 0.00 | 0.00 | 0.00 | 7 | 1007.8 |
| 20260503213045 | 59 | 278 | 9.0 | 0.0 | 0.00 | 0.00 | 0.00 | 7 | 1007.6 |
| 20260503211545 | 59 | 278 | 7.0 | 0.0 | 0.00 | 0.00 | 0.00 | 6 | 1007.5 |
| 20260503210030 | 60 | 304 | 7.0 | 0.0 | 0.00 | 0.00 | 0.00 | 9 | 1007.5 |
| 20260503204540 | 59 | 274 | 5.0 | 0.0 | 0.00 | 0.00 | 0.00 | 8 | 1007.6 |
| 20260503203033 | 58 | 292 | 6.0 | 0.0 | 0.00 | 0.00 | 0.00 | 7 | 1007.7 |
| 20260503201547 | 58 | 288 | 7.0 | 0.0 | 0.00 | 0.00 | 0.00 | 8 | 1007.8 |
| 20260503200043 | 58 | 291 | 10.0 | 0.0 | 0.00 | 0.00 | 0.00 | 6 | 1007.9 |
| 20260503194542 | 59 | 304 | 4.0 | 0.0 | 0.00 | 0.00 | 0.00 | 7 | 1008.1 |
| 20260503193046 | 58 | 308 | 9.0 | 0.0 | 0.00 | 0.00 | 0.00 | 5 | 1008.3 |
| 20260503191536 | 59 | 353 | 6.0 | 0.0 | 0.00 | 0.00 | 0.00 | 7 | 1008.5 |
| 20260503190030 | 58 | 322 | 7.0 | 0.0 | 0.00 | 0.00 | 0.00 | 9 | 1008.7 |
| 20260503184619 | 58 | 329 | 10.0 | 0.0 | 0.00 | 0.00 | 0.00 | 6 | 1008.9 |
| 20260503183054 | 57 | 291 | 10.0 | 0.0 | 0.00 | 0.00 | 0.00 | 7 | 1009.0 |
| 20260503181545 | 57 | 296 | 9.0 | 0.0 | 0.00 | 0.00 | 0.00 | 7 | 1009.0 |
| 20260503180043 | 56 | 318 | 12.0 | 0.0 | 0.00 | 0.00 | 0.00 | 7 | 1009.2 |
| 20260503174558 | 55 | 360 | 8.0 | 0.0 | 0.00 | 0.00 | 0.00 | 9 | 1009.3 |
| 20260503173034 | 55 | 335 | 9.0 | 0.0 | 0.00 | 0.00 | 0.00 | 8 | 1009.5 |
| 20260503120123 | 43 | 353 | 4.0 | 0.0 | 0.00 | 0.00 | 0.00 | 26 | 1010.8 |